Thursday, May 24, 2018, 5:40 AM EDT
Back to Local

KPBG, Plattsburgh International Airport

Location: Plattsburgh, NY, United States Lat: 44.65
Local Time: 5:40 AM EDT ( 9:40 GMT) Lon: -73.467
Time Zone: US/Eastern Elev: 239 ft

Show me the last for .
Show Decoded

2018-05-24 04:53 METAR KPBG 240853Z AUTO 29006KT 10SM CLR 12/M03 A3008 RMK AO2 SLP186 T01221028
                 53017 =
2018-05-24 03:53 METAR KPBG 240753Z AUTO 31008KT 10SM BKN120 13/M04 A3006 RMK AO2 SLP180
                 T01281039 =
2018-05-24 02:53 METAR KPBG 240653Z AUTO 31009KT 10SM CLR 14/M05 A3005 RMK AO2 SLP174 T01391050 =
2018-05-24 01:53 METAR KPBG 240553Z AUTO 31008G15KT 10SM CLR 14/M06 A3003 RMK AO2 SLP169
                 T01441056 10206 20122 51012 =
2018-05-24 00:53 METAR KPBG 240453Z AUTO 31009KT 10SM CLR 16/M05 A3003 RMK AO2 SLP169 T01561050
                 402500106 =
2018-05-23 23:53 METAR KPBG 240353Z AUTO 31009KT 10SM CLR 16/M03 A3001 RMK AO2 SLP163 T01561033 =
2018-05-23 22:53 METAR KPBG 240253Z AUTO 34006KT 10SM CLR 12/02 A2999 RMK AO2 SLP158 T01220017
                 53016 =
2018-05-23 21:53 METAR KPBG 240153Z AUTO 31008KT 10SM CLR 18/M01 A2998 RMK AO2 SLP150 T01831011 =
2018-05-23 20:53 METAR KPBG 240053Z AUTO 29004KT 10SM CLR 17/03 A2996 RMK AO2 SLP146 T01720033 =
2018-05-23 19:53 METAR KPBG 232353Z AUTO 32007KT 10SM CLR 21/01 A2995 RMK AO2 SLP140 T02060006
                 10250 20206 53018 =
2018-05-23 18:53 METAR KPBG 232253Z AUTO 32013G20KT 10SM CLR 23/00 A2993 RMK AO2 SLP135 T02280000
                 =
2018-05-23 17:53 METAR KPBG 232153Z AUTO 33014G20KT 10SM FEW080 24/06 A2991 RMK AO2 SLP128
                 T02390061 =
2018-05-23 16:53 METAR KPBG 232053Z AUTO 32010G19KT 10SM SCT070 23/08 A2989 RMK AO2 SLP122
                 T02330083 58001 =
2018-05-23 15:53 METAR KPBG 231953Z AUTO 32011G19KT 10SM FEW070 24/09 A2989 RMK AO2 SLP121
                 T02440094 =
2018-05-23 14:53 METAR KPBG 231853Z AUTO 32011G19KT 290V350 10SM FEW110 24/10 A2990 RMK AO2 WSHFT
                 1813 SLP125 T02440100 =
2018-05-23 14:33 METAR KPBG 231833Z AUTO 33013G21KT 10SM SCT110 24/09 A2990 RMK AO2 WSHFT 1813
                 T02440089 =
2018-05-23 13:53 METAR KPBG 231753Z AUTO 06008KT 10SM FEW120 22/14 A2990 RMK AO2 SLP123 T02170139
                 10222 20150 51005 =
2018-05-23 12:53 METAR KPBG 231653Z AUTO 08006KT 10SM CLR 22/13 A2989 RMK AO2 SLP122 T02170133 =
2018-05-23 11:53 METAR KPBG 231553Z AUTO 11008KT 10SM FEW055 19/13 A2989 RMK AO2 SLP123 T01940133
                 =
2018-05-23 10:53 METAR KPBG 231453Z AUTO 09007KT 10SM CLR 20/14 A2988 RMK AO2 SLP119 T02000139
                 58008 =
2018-05-23 09:53 METAR KPBG 231353Z AUTO 10SM CLR 18/13 A2989 RMK AO2 SLP123 T01780133 =
2018-05-23 08:53 METAR KPBG 231253Z AUTO 12008KT 10SM CLR 16/13 A2990 RMK AO2 SLP125 T01610133 =
2018-05-23 07:53 METAR KPBG 231153Z AUTO 13006KT 10SM CLR 15/13 A2991 RMK AO2 SLP127 70029
                 T01500133 10150 20106 50006 =
2018-05-23 06:53 METAR KPBG 231053Z AUTO 10SM CLR 13/12 A2991 RMK AO2 SLP128 T01280122 =
2018-05-23 06:29 METAR KPBG 231029Z AUTO 00000KT 4SM BR CLR 12/12 A2991 RMK AO2 T01220117 $ =
2018-05-23 06:24 METAR KPBG 231024Z AUTO 00000KT 1 1/2SM BR FEW003 12/12 A2990 RMK AO2 VIS 3/4V5
                 T01170117 $ =
2018-05-23 06:11 METAR KPBG 231011Z AUTO 00000KT 1SM BR CLR 11/11 A2990 RMK AO2 VIS 1/4V3
                 T01110111 $ =
2018-05-23 06:01 METAR KPBG 231001Z AUTO 00000KT 1/4SM FG FEW004 SCT010 11/11 A2989 RMK AO2
                 T01060106 $ =
2018-05-23 05:53 METAR KPBG 230953Z AUTO 00000KT 1/2SM FG FEW003 BKN010 11/11 A2989 RMK AO2
                 SLP123 T01110111 $ =

Support USWX by starting your Amazon purchase here.